Defiance, OH

2:44 PM EDT on July 20, 2017 (GMT -0400)
Defiance Memorial

Weather History for KDFI - February, 2015

Change the Weather History Date:

Monday, February 2, 2015

  Actual Average Record
Temperature  
Mean Temperature 14 °F -  
Max Temperature 19 °F 34 °F 59 °F (2016)
Min Temperature 8 °F 16 °F -16 °F (1951)
Degree Days  
Heating Degree Days 52    
Moisture  
Dew Point 7 °F    
Average Humidity 72    
Maximum Humidity 85    
Minimum Humidity 43    
Precipitation  
Precipitation 0.00 in - - ()
Sea Level Pressure  
Sea Level Pressure 29.93 in    
Wind  
Wind Speed 14 mph (NW)    
Max Wind Speed 20 mph    
Max Gust Speed 25 mph    
Visibility 6 miles    
Events Snow    
Averages and records for this station are not official NWS values.
T = Trace of Precipitation, MM = Missing Value Source: NWS Daily Summary

Daily Weather History Graph

Daily Weather History Graph

Search for Another Location

Airport or City:

Trip Planner

Search our weather history database for the weather conditions in past years. The results will help you decide how hot, cold, wet, or windy it might be!

Date:

Astronomy

Feb. 02, 2015 Rise Set
Actual Time 7:48 AM EST 5:55 PM EST
Civil Twilight 7:19 AM EST 6:24 PM EST
Nautical Twilight 6:46 AM EST 6:57 PM EST
Astronomical Twilight 6:13 AM EST 7:29 PM EST
Moon 5:06 PM EST (2/2) 6:38 AM EST (2/2)
Length of Visible Light 11h 05m
Length of Day
10h 06m
Waxing Gibbous, 99% of the Moon is Illuminated
Feb 2
Waxing Gibbous
Feb 3
Full
Feb 11
Last Quarter
Feb 18
New
Feb 25
First Quarter

Hourly Weather History & Observations

Time (EST) Temp. Windchill Dew Point Humidity Pressure Visibility Wind Dir Wind Speed Gust Speed Precip Events Conditions
12:08 AM 19.9 °F 5.2 °F 16.0 °F 85% 29.62 in 1.8 mi North 17.3 mph 23.0 mph 0.00 in Snow Light Snow
12:18 AM 19.9 °F 4.3 °F 15.1 °F 81% 29.62 in 2.0 mi NNE 19.6 mph 25.3 mph 0.00 in Snow Light Snow
12:25 AM 19.9 °F 5.7 °F 15.1 °F 81% 29.62 in 2.5 mi North 16.1 mph 25.3 mph 0.00 in Snow Light Snow
12:34 AM 19.9 °F 6.2 °F 16.0 °F 85% 29.62 in 3.0 mi North 15.0 mph - 0.00 in Snow Light Snow
12:53 AM 19.9 °F 6.2 °F 15.1 °F 81% 29.67 in 3.0 mi North 15.0 mph - 0.00 in Snow Light Snow
1:32 AM 19.0 °F 6.8 °F 14.0 °F 81% 29.65 in 6.0 mi North 11.5 mph 21.9 mph 0.00 in Snow Light Snow
1:53 AM 19.0 °F 5.6 °F 14.0 °F 81% 29.69 in 4.0 mi North 13.8 mph - 0.00 in Snow Light Snow
2:53 AM 18.0 °F 3.6 °F 12.0 °F 78% 29.71 in 2.5 mi North 15.0 mph - 0.00 in Snow Light Snow
3:00 AM 18.0 °F 3.6 °F 12.0 °F 78% 29.69 in 2.0 mi North 15.0 mph 21.9 mph 0.00 in Snow Light Snow
3:11 AM 17.1 °F 2.0 °F 12.0 °F 81% 29.70 in 2.5 mi North 16.1 mph 23.0 mph 0.00 in Snow Light Snow
3:48 AM 17.6 °F 5.0 °F 12.2 °F 79% 29.73 in 2.5 mi North 11.5 mph - 0.00 in Snow Light Snow
3:53 AM 18.0 °F 4.8 °F 12.0 °F 78% 29.76 in 2.5 mi North 12.7 mph - 0.00 in Snow Light Snow
4:06 AM 18.0 °F 5.4 °F 12.9 °F 81% 29.74 in 2.0 mi North 11.5 mph - 0.00 in Snow Light Snow
4:34 AM 18.0 °F 3.6 °F 12.9 °F 81% 29.76 in 1.8 mi NNW 15.0 mph - 0.00 in Snow Light Snow
4:53 AM 18.0 °F 4.8 °F 12.0 °F 78% 29.80 in 1.8 mi North 12.7 mph - 0.00 in Snow Light Snow
5:40 AM 16.0 °F 0.1 °F 10.9 °F 81% 29.80 in 2.0 mi NW 17.3 mph 24.2 mph 0.00 in Snow Light Snow
5:53 AM 15.1 °F -0.1 °F 10.0 °F 80% 29.84 in 2.5 mi NNW 15.0 mph - 0.00 in Snow Light Snow
6:11 AM 14.0 °F -1.4 °F 9.0 °F 80% 29.82 in 5.0 mi NNW 15.0 mph - 0.00 in Snow Light Snow
6:53 AM 12.9 °F -2.2 °F 6.1 °F 74% 29.89 in 8.0 mi NNW 13.8 mph - 0.00 in   Overcast
7:53 AM 10.0 °F -7.1 °F 3.0 °F 73% 29.96 in 10.0 mi NW 16.1 mph - N/A   Clear
8:53 AM 10.9 °F -5.4 °F 3.0 °F 70% 30.01 in 10.0 mi NNW 15.0 mph 24.2 mph N/A   Clear
9:53 AM 10.9 °F -7.5 °F 3.0 °F 70% 30.08 in 8.0 mi NW 19.6 mph 25.3 mph N/A   Clear
10:53 AM 12.0 °F -2.7 °F 1.9 °F 64% 30.11 in 10.0 mi NNW 12.7 mph - N/A   Overcast
11:53 AM 14.0 °F -0.2 °F 3.0 °F 62% 30.13 in 10.0 mi NW 12.7 mph - N/A   Clear
12:53 PM 14.0 °F 0.5 °F 3.0 °F 62% 30.14 in 10.0 mi WNW 11.5 mph - N/A   Clear
1:53 PM 15.1 °F 0.5 °F 1.9 °F 56% 30.15 in 10.0 mi WNW 13.8 mph - N/A   Clear
2:53 PM 16.0 °F 2.9 °F -0.9 °F 47% 30.16 in 10.0 mi NW 11.5 mph - N/A   Clear
3:53 PM 16.0 °F 8.8 °F -2.0 °F 45% 30.18 in 10.0 mi Variable 4.6 mph - N/A   Clear
4:53 PM 16.0 °F 6.3 °F -2.9 °F 43% 30.19 in 10.0 mi WNW 6.9 mph - N/A   Clear
5:53 PM 14.0 °F 8.2 °F -2.0 °F 49% 30.21 in 10.0 mi WSW 3.5 mph - N/A   Clear
6:53 PM 10.9 °F 1.4 °F -0.9 °F 59% 30.24 in 10.0 mi SW 5.8 mph - N/A   Clear
7:53 PM 8.1 °F -0.5 °F -2.9 °F 61% 30.25 in 10.0 mi SW 4.6 mph - N/A   Clear
8:53 PM 8.1 °F -0.5 °F -0.9 °F 67% 30.25 in 10.0 mi SW 4.6 mph - N/A   Clear
9:53 PM 10.0 °F -0.9 °F 3.0 °F 73% 30.25 in 10.0 mi SSW 6.9 mph - N/A   Clear
10:53 PM 10.9 °F 1.4 °F 6.1 °F 81% 30.25 in 10.0 mi SW 5.8 mph - N/A   Clear
11:53 PM 12.9 °F 2.6 °F 8.1 °F 81% 30.26 in 10.0 mi SW 6.9 mph - N/A   Clear